Regional Weather Roundup
Issued by NWS Wakefield, VA

Home | Current Version | Previous Version | Text Only | Print | Product List | Glossary On
Versions: 1 2 3 4 5 6 7 8 9 10 11 12 13 14 15 16 17 18 19 20 21 22 23 24 25 26 27 28 29 30 31 32 33 34 35 36 37 38 39 40 41 42 43 44 45 46 47 48 49 50
000
ASUS41 KAKQ 090815
RWRAKQ

REGIONAL WEATHER ROUNDUP
NATIONAL WEATHER SERVICE WAKEFIELD VA
300 AM EST TUE FEB 09 2016

Note: "fair" indicates few or no clouds below 12,000 feet with no
significant weather and/or obstructions to visibility. * = Denotes
station may not report precipitation (e.g., rain,snow,etc.),
thunder or fog.

VAZ042-051-052>054-056-090900-
NORTHERN VIRGINIA

CITY           SKY/WX    TMP DP  RH WIND       PRES   REMARKS
WASH NATIONAL  LGT RAIN  38  34  85 E8        29.59F
DULLES         LGT RAIN  36  34  92 SE5       29.58F
FORT BELVOIR   LGT RAIN  38  34  88 VRB1      29.58F
QUANTICO       CLOUDY    39  36  89 VRB3      29.59F
FREDERICKSBRG* CLOUDY    37  37 100 CALM      29.57F
STAFFORD*      CLOUDY    37  35  94 CALM      29.61F
WARRENTON      RAIN      37  37 100 N3        29.57S
CULPEPER*      CLOUDY    34  34  99 CALM      29.58F FOG
MANASSAS*      CLOUDY    36  36 100 N3        29.58F
LEESBURG*      RAIN      36  36 100 CALM      29.58F
WINCHESTER     CLOUDY    36  34  93 CALM      29.55F
FRONT ROYAL*   CLOUDY    34  32  93 CALM      29.54F
LURAY*         CLOUDY    34  34 100 CALM      29.54F
$$

VAZ048-049-060>072-079>083-090900-
CENTRAL AND SOUTH CENTRAL VIRGINIA

CITY           SKY/WX    TMP DP  RH WIND       PRES   REMARKS
RICHMOND       CLOUDY    38  37  97 CALM      29.56S
CHESTERFIELD*  CLOUDY    39  27  60 NW3       29.57F
PETERSBURG*    CLOUDY    40  39  97 CALM      29.57S FOG
HANOVER        CLOUDY    38  36  92 CALM      29.57F
TAPPAHANNOCK*  CLOUDY    39  39 100 E3        29.57F
QUINTON*       PTSUNNY   37  37 100 CALM      29.56S
CHARLOTTSVILLE CLOUDY    36  34  92 N3        29.55F FOG
GORDONSVILLE*  CLOUDY    35  35 100 CALM      29.56F FOG
ORANGE*        CLOUDY    36  36 100 CALM      29.58F FOG
LOUISA*        CLOUDY    36  36 100 CALM      29.54F FOG
BUMPASS*       CLOUDY    35  35 100 CALM      29.56F
FARMVILLE*     FOG       32  32 100 CALM      29.56S VSB 3/4
CREWE*         CLOUDY    33  33 100 NW5       29.57S
FORT PICKETT*  FAIR      34  33  97 NW5       29.56S
CHASE CITY*    FAIR      33  32  96 W6        29.57F
CLARKSVILLE*   CLOUDY    34  32  93 W3        29.58F
SOUTH HILL*    FAIR      33  32  96 W3        29.62F
LAWRENCEVILLE* FAIR      33  33 100 CALM      29.56F
EMPORIA*         N/A     34  34 100 CALM      29.58F
$$

VAZ088>098-090900-
SOUTHEAST VIRGINIA

CITY           SKY/WX    TMP DP  RH WIND       PRES   REMARKS
NORFOLK        CLOUDY    43  39  86 CALM      29.55F
VIRGINIA BEACH CLOUDY    45  40  82 W6        29.55S
NORFOLK NAVAL  CLOUDY    43  39  86 N3        29.57F
WEST POINT*    CLOUDY    39  39  97 CALM      29.57F
SALUDA*        CLOUDY    39  39 100 CALM      29.56F
NEWPORT NEWS   CLOUDY    40  40 100 CALM      29.56F
LANGLEY AFB    CLOUDY    41  40  96 E3        29.55F
FORT EUSTIS    CLOUDY    40  40  99 CALM      29.54F
WILLIAMSBURG*  MOCLDY    41  39  93 CALM      29.57F
HR EXEC AP*    PTSUNNY   39  36  87 CALM      29.57S
FRANKLIN*      FOG       35  34  96 CALM      29.57S VSB 1/2
US460-WAKEFLD  CLOUDY    38  36  92 CALM      29.57S FOG
$$

VAZ020-022-025-037-045-090900-
WEST CENTRAL AND SOUTHWEST VIRGINIA

CITY           SKY/WX    TMP DP  RH WIND       PRES   REMARKS
STAUNTON*      LGT SNOW  35  34  94 CALM      29.55F
WAYNESBORO*    CLOUDY    34  26  72 CALM      29.53S
HOT SPRINGS VA CLOUDY   N/A N/A N/A W12       29.43F
LYNCHBURG      FAIR      28  26  92 W3        29.57F
DANVILLE       FAIR      28  26  92 W5        29.61F
SOUTH BOSTON*  CLOUDY    33  31  92 W6        29.59F
MARTINSVILLE   CLOUDY    20  19  96 CALM      29.63S
ROANOKE        FAIR      30  24  78 W7        29.59F
BLACKSBURG     CLOUDY    31  27  86 W6        29.58F
DUBLIN*        CLOUDY    31  26  82 W6        29.58S
MARION*        FLURRIES  29  26  88 W9        29.59S
HILLSVILLE*    CLOUDY    27  24  87 W6        29.53S
RICHLANDS*     LGT SNOW  25  22  88 W6        29.58F
WISE*          FLURRIES  25  18  74 W10       29.62S WCI  15
ABINGDON*      LGT SNOW  28  25  87 W10       29.63S WCI  19
$$

MDZ021>025-VAZ099-100-090900-
SOUTHERN MARYLAND AND THE DELMARVA PENINSULA

CITY           SKY/WX    TMP DP  RH WIND       PRES   REMARKS
PATUXENT RIVER CLOUDY    38  35  89 E8        29.58F
BAY BRIDGE APT   N/A     36  34  93 E6        29.61F
LEONARDTOWN    CLOUDY    36  34  93 E5        29.59F
DOVER          CLOUDY    36  36 100 NE12      29.60F
GEORGETOWN     CLOUDY    37  35  92 NE7       29.60F
EASTON         LGT RAIN  36  36 100 E5        29.64F
CAMBRIDGE      MOCLDY    34  34 100 CALM      29.59F
SALISBURY      LGT RAIN  37  35  92 NE5       29.58F
OCEAN CITY     CLOUDY    41  36  82 E8        29.59F
WALLOPS ISLAND CLOUDY    41  37  86 E7        29.59F
ACCOMACK*      LGT RAIN  39  36  87 NE3       29.58R
$$

NCZ012>017-030>032-090900-
NORTH CENTRAL AND EASTERN NORTH CAROLINA

CITY           SKY/WX    TMP DP  RH WIND       PRES   REMARKS
ROANOKE RAPIDS FAIR      36  36 100 CALM      29.57F
RALEIGH        MOCLDY    35  33  92 CALM      29.61S
ELIZABETH CITY MOCLDY    39  37  92 SW6       29.56S
AHOSKIE*       FOG       36  35  97 CALM      29.58R VSB 1/2
EDENTON*       MOCLDY    42  41  97 NW5       29.57S
CURRITUCK*     CLOUDY    42  40  95 CALM      29.56S
KILL DEVIL HLS CLOUDY    42  39  88 SW5       29.54F
MANTEO         CLOUDY    42  40  93 SW7       29.56F
CAPE HATTERAS  LGT RAIN  44  40  85 CALM      29.59F
TARBORO*       CLOUDY    39  39  99 W5        29.60R
GOLDSBORO      CLOUDY    39  39 100 W6        29.59S
WASHINGTON     CLOUDY    39  38  95 CALM      29.58S
GREENVILLE     CLOUDY    39  37  93 W3        29.62R
NEW BERN       MOCLDY    42  38  85 W8        29.62R
WILMINGTON     CLOUDY    45  39  79 W8        29.63S
$$

VAZ048-090900-
ELSEWHERE

CITY           SKY/WX    TMP DP  RH WIND       PRES   REMARKS
HARRISBURG PA  FLURRIES  33  30  88 E12       29.61F WCI  24
BALTIMORE      LGT SNOW  35  33  92 E9        29.60F FOG
ANNAPOLIS      CLOUDY    36  34  92 E8        29.60F
ANDREWS AFB    CLOUDY    36  34  92 E8        29.57F
PHILADELPHIA   CLOUDY    32  27  81 E8        29.67F
HENDERSON NC   PTCLDY    37  29  74 W5        29.59S
GREENSBORO     CLOUDY    34  28  79 NW6       29.60F
ROCKY MOUNT    MOCLDY    38  37  97 W5        29.60R
$$

VAZ100-090900-
MARINE

STATION/POSITION TIME  TEMP    WIND        PRES    WAVE   SWELL
                       AIR SEA DIR/SP/G            HT/PER HT/PER
                 (UTC) (F)     (DEG/KT/KT) (MB)    (FT/S) (FT/S)
BRANDYWINE LGT   0700   37     100/ 12/ 13 1003.7F
CAPE MAY NJ      0700   37 42   70/  6/  9 1003.6F
LEWES DE         0700   39 41  100/ 10/ 11 1003.4F
15NM E FENWICK I 0750   41 43              1001.9F  11/13
OCEAN-CITY-INLET 0700   40 41  100/  8/ 12 1001.9F
WACHAPREAGUE VA  0700   42 42   50/  9/ 12 1001.2F
THOMAS POINT MD  0800   36 39  100/ 12/ 13 1003.0
GOOSES REEF MD   0800   37 40  100/ 10/ 12 1002.9F   1/ 3
COVE POINT MD    0700   36     130/  8/ 12 1003.1F
SOLOMONS ISLAND  0700   38 41   80/  8/ 10   N/A
BISHOPS HEAD MD  0700   38 40   80/  9/ 11 1001.3F
PINEY POINT MD   0700          110/  8/ 10   N/A
POTOMAC MD       0800   40 41  120/ 10/ 12 1000.3F   2/ 3
CAMBRIDGE MD     0700   36 40   80/  8/ 10 1002.1F
LEWISETTA VA     0700   40 41  120/ 11/ 12 1001.4F
RAPPAHANNOCK LGT 0700           50/  6/  7 1001.6F
STINGRAY PT      0800   41 42   90/  8/ 10 1000.9F   1/ 3
YORK RVR RNG VA  0700   42     130/  5/  5 1000.7F
YORKTOWN VA      0700   42 43  120/  4/  5 1001.1F
JAMESTOWN VA     0800   39 44   40/  2/  2   N/A
DOMINION TERM VA 0700   42      40/  1/  2 1001.3F
KIPTOPEKE VA     0700      43   90/  4/  6   N/A
CHES BAY BRIDGE  0700   43 44  290/  3/  4 1000.9F
CAPE HENRY VA    0700   44     110/  7/  9   N/A
CHESAPEAKE LGHT  0700   45     100/  9/ 10 1001.7F
WILLOUBY STN VA  0700   42      20/  4/  4   N/A
CAPE HENRY BUOY  0728      45                N/A     7/14   5/14
1ST LANDING BUOY 0800      44                N/A     5/ 8
CAPE CHARLES BUO 0726      44                N/A     9/13   8/13
OFFSHORE WE BUOY 0721      46                N/A     8/14   8/14
64NM E OF VA BCH 0750   50 52  100/ 14/ 17  999.2F  14/14  13/14
DUCK PIER NC     0700   45     160/  3/  4  999.8F
44100 DUCK FRF   0724      47                N/A    12/14  10/14
44056 DUCK FRF   0711      44                N/A    10/14   8/14
OREGON INLET NC  0700   43 45  200/  3/  3 1001.2S
HATTERAS NC      0700   46 53  290/ 13/ 15 1001.2F
DIAMOND SHLS NC  0750   48 73  290/ 16/ 21 1002.1R  11/15 C1F1C2F2C3F3C4F4C5F5C6F6C7F7C8M1C9!


USA.gov is the U.S. government's official web portal to all federal, state and local government web resources and services.